Home > Weather > Brampton > Past weeks

Flag for Canada Past Weather in Brampton, Ontario, Canada — Yesterday and Last 2 Weeks

Now
63 °F

Light rain. Overcast.


Feels Like: 63 °F
Forecast: 59 / 71 °F
Wind: 7 mph from Southwest

Location: Toronto Pearson International Airport

Current Time: Jul 1, 2016 at 9:30:33 AM

Latest Report: Jul 1, 2016 at 9:00 AM


Visibility: 10 mi

Pressure: 29.88 "Hg

Humidity: 88%

Dew Point: 59 °F

Location of BramptonLocation

Past Weather in Brampton — Graph

°F

Brampton Temperature Yesterday

Maximum temperature yesterday: 81 °F (at 3:00 PM)
Minimum temperature yesterday: 55 °F (at 5:00 AM)
Average temperature yesterday: 70 °F

High & Low Weather Summary for the Past Weeks

 TemperatureHumidityPressure
High93 °F (Jun 20, 2:00 PM)94% (Jun 27, 5:00 AM)30.27 "Hg (Jun 27, 5:00 AM)
Low55 °F (Jun 23, 5:00 AM)21% (Jun 30, 9:00 PM)29.74 "Hg (Jun 16, 3:00 PM)
Average73 °F46%29.98 "Hg
* Reported Jun 16 8:00 AM — Jul 1 8:00 AM, Brampton, Weather by CustomWeather, © 2016

Note: Actual official high and low records may vary slightly from our data, if they occured in-between our weather recording intervals... More about our weather records

Advertising

Brampton Weather History for the Previous 24 Hours

Scroll right to see more
 ConditionsComfort  
Time TempWeatherWind HumidityBarometerVisibility
8:00 AM
Fri, Jul 1
66 °FOvercast.6 mph64%29.85 "Hg15 mi
7:00 AM64 °FPartly sunny.3 mph49%29.85 "Hg15 mi
6:00 AM64 °FPassing clouds.2 mph49%29.87 "Hg15 mi
5:00 AM64 °FPassing clouds.No wind46%29.88 "Hg15 mi
4:00 AM63 °FPassing clouds.No wind49%29.89 "Hg15 mi
3:00 AM64 °FPassing clouds.3 mph46%29.90 "Hg15 mi
2:00 AM66 °FPassing clouds.6 mph43%29.91 "Hg15 mi
1:00 AM68 °FClear.5 mph40%29.93 "Hg15 mi
12:00 AM70 °FClear.8 mph35%29.93 "Hg15 mi
11:00 PM
Thu, Jun 30
72 °FPassing clouds.7 mph33%29.94 "Hg15 mi
10:00 PM73 °FPassing clouds.9 mph29%29.95 "Hg15 mi
9:00 PM75 °FPassing clouds.13 mph21%29.95 "Hg15 mi
8:00 PM77 °FPassing clouds.15 mph26%29.95 "Hg15 mi
7:00 PM79 °FScattered clouds.16 mph34%29.94 "Hg15 mi
6:00 PM79 °FPassing clouds.17 mph34%29.94 "Hg15 mi
5:00 PM79 °FPartly sunny.16 mph30%29.95 "Hg15 mi
4:00 PM81 °FPartly sunny.15 mph26%29.96 "Hg15 mi
3:00 PM81 °FPartly sunny.14 mph28%29.98 "Hg15 mi
2:00 PM77 °FPartly sunny.14 mph28%29.99 "Hg15 mi
1:00 PM79 °FPartly sunny.10 mph28%30.00 "Hg15 mi
12:00 PM77 °FScattered clouds.No wind28%30.01 "Hg15 mi
11:00 AM75 °FScattered clouds.3 mph27%30.03 "Hg15 mi
10:00 AM73 °FPassing clouds.6 mph29%30.05 "Hg15 mi
9:00 AM70 °FPassing clouds.2 mph38%30.05 "Hg15 mi
Weather by CustomWeather, © 2016

See weather overviewHow to use our weather pages